Tracking 19709 objects as of 17-Jun-2019
HD Live streaming from Space Station
objects crossing your sky now

COSMOS 2269

Track COSMOS 2269 now!
10-day predictions
COSMOS 2269 is classified as:


NORAD ID: 23000
Int'l Code: 1994-011B
Perigee: 1,417.6 km
Apogee: 1,427.0 km
Inclination: 82.6 °
Period: 114.1 minutes
Semi major axis: 7793 km
RCS: 1.1181 m2 (large)
Launch date: February 12, 1994
Source: Commonwealth of Independent States (former USSR) (CIS)
Launch site: PLESETSK MISSILE AND SPACE COMPLEX (PKMTR)
aabbcc
Your satellite tracking list
Your tracking list is empty




NASA's NSSDC Master Catalog

Two Line Element Set (TLE):
1 23000U 94011B   19167.92675343 +.00000012 +00000-0 +55726-5 0  9996
2 23000 082.5659 153.9108 0006036 213.4056 205.6397 12.61880999167138
Source of the keplerian elements: AFSPC